STARLINK-37517, 69254

Orbit data source: Space-Track

STARLINK-37517, 69254 is a payload satellite owned by SpaceX/Seattle (US) in LEO that was launched on Wed, 20 May 2026 UTC via an FALCON 9 launch vehicle from the Air Force Western Test Range (AFWTR). Payload-class satellites include a variety of spacecraft equipped with specific instruments for various scientific and technological missions. These include communications satellites like Starlink; space stations such as the ISS; scientific satellites like the Hubble; Earth observation satellites from companies like Planet Labs, Umbra, and HawkEye 360; GPS; miniature CubeSats for education and research; and military/defense satellites.

Loading next visibility...
Identifier
69254, 2026-117S
Orbit
LEO
Country
Flag of USUS
Related business
Manufacturer
SpaceX/Seattle
Mission
Operational spacecraft
Bus & Motor
STARLINK V2MO, Unknown motor
Mass
575 kg wet, ~530 kg dry
Launch date (UTC)
2026-05-20 (1 month ago)
Launch vehicle
FALCON 9
Launch site
Air Force Western Test Range (AFWTR)
Object type
Payload
Rocket body
Debris
Shape & HBR
Unknown
Radar Cross Section
Large (>1 m²)

Expand to show TLE details & history
Last TLE update: 9 hours ago

TLE from 9 hours ago
0 STARLINK-37517
1 69254U 26117S   26168.65245861  .00152638  00000-0  72303-3 0  9996
2 69254  53.1570 240.8700 0000809 131.6385 228.4708 15.82044264  3059
Epoch: 2026-06-17T15:39Z
TLE epoch observation values (Epoch: 2026-06-17T15:39:32.423Z)
Latitude
-0.00001°
Longitude
100.07783°
Altitude
325.939 km
Speed
7.714 km/s
True Right ascension
16h 03m 28s
True Declination
0° 00' 00"
Sunlit
Object was in full shadow at epoch
Visualization orbit readout
Latitude
Unknown
Longitude
Unknown
Altitude
Unknown
Speed
Unknown
Apparent Right ascension
Unknown
Apparent Declination
Unknown
Sunlit
N/A
Visualization observer readout
Local Sidereal Time
11:41:55
Azimuth
Unknown
Elevation
Unknown
Doppler factor
Unknown
Orbital elements
Apogee altitude
325.465 km
Perigee altitude
324.381 km
Semi-major axis
6,703.06 km
Eccentricity
0.00008
Inclination
53.157°
RAAN
240.87°
Arg. of periapsis
131.6385°
True anomaly
228.46386°
Mean anomaly
228.4708°
Eccentric anomaly
228.46733°
Mean motion
3.95488 °/min
Orbital period
91.03 mins
BSTAR
0.00072303
Loading maneuver chart data...
Computing Atmospheric mass density...
Loading historical data...
Loading historical data...
Loading historical data...
Loading historical data...
Loading historical data...
Loading historical data...
Loading historical data...

Documentation

Showing up to 5 results
|